Regional Weather Roundup
Issued by NWS

Home | Current Version | Previous Version | Graphics & Text | Print | Product List | Glossary On
Versions: 1 2 3 4 5 6 7 8 9 10 11 12 13 14 15 16 17 18 19 20 21 22 23 24 25 26 27
000
ASUS45 KSLC 231310
RWRUT

UTAH REGIONAL WEATHER ROUNDUP
NATIONAL WEATHER SERVICE SALT LAKE CITY UT
700 AM MDT WED MAY 23 2018

UTZ001>011-023>025-231400-

NORTHERN UTAH

CITY           SKY/WX    TMP DP  RH WIND       PRES   REMARKS
BRIGHAM CITY   PTCLDY    51  45  80 CALM      29.95S
DUGWAY         MOCLDY    44  42  93 S2        29.96
HILL AFB       CLEAR     50  42  73 E14       29.96R
LOGAN          MOCLDY    51  45  79 VRB3      29.96R
OGDEN          PTCLDY    51  42  71 S9        29.95R
SALT LAKE CITY PTCLDY    55  45  67 SE9       29.95R
TOOELE VALLEY  CLEAR     50  43  76 S8        29.96R
WENDOVER       CLEAR     53  45  74 CALM      29.93S
HEBER CITY     FOG       41  41 100 CALM      30.02S VSB<1/4
WEST JORDAN    MOCLDY    53  50  88 S7        29.97R

$$

UTZ011>015-024>027-231400-

CENTRAL/NORTHEAST UTAH

CITY           SKY/WX    TMP DP  RH WIND       PRES   REMARKS
PROVO AIRPORT  PTCLDY    48  43  82 E3        30.00R
MOAB/CANYONLAN CLEAR     53  43  68 CALM      29.97R
DELTA          PTCLDY    45  41  87 E3        29.98S
PRICE          PTCLDY    48  35  60 CALM      30.02R
ROOSEVELT      SUNNY     43  36  75 W5        30.05R
VERNAL         SUNNY     47  37  68 CALM      30.03R

$$

UTZ013>016-019>022-027-231400-

SOUTHERN UTAH

CITY           SKY/WX    TMP DP  RH WIND       PRES   REMARKS
BRYCE CANYON   CLEAR     34  32  92 W8        30.13R WCI  27
CEDAR CITY     PTCLDY    44  37  76 NE3       30.01R
MILFORD        CLOUDY    44  42  93 S7        29.99R
ST GEORGE      SUNNY     61  40  45 E9        29.92R
HANKSVILLE     PTCLDY    46  27  46 CALM      30.00R
BLANDING         N/A     50  26  38 NE7       30.13R

$$

REGIONAL REPORTS     COLORADO/ARIZONA

CITY           SKY/WX    TMP DP  RH WIND       PRES   REMARKS
CRAIG, CO      SUNNY     38  36  92 CALM      30.08R
GRAND JUNCTION SUNNY     49  43  80 SE5       30.00R
RIFLE, CO      MOSUNNY   44  40  85 S3        30.06R
MONTROSE, CO   MOSUNNY   44  34  67 SE7       30.07R
CORTEZ, CO     SUNNY     42  28  57 E3        30.09R
COLORADO CITY    N/A     43  37  81 S3        30.04R
PAGE, AZ       CLEAR     58  33  39 S5        29.99R
GRAND CANYON   CLEAR     32  24  72 CALM      30.11R
KINGMAN, AZ    CLEAR     54  31  41 S5        29.94R
FLAGSTAFF, AZ  CLEAR     33  19  56 CALM      30.13R

$$

REGIONAL REPORTS    NEVADA/IDAHO/WYOMING

CITY           SKY/WX    TMP DP  RH WIND       PRES   REMARKS
LAS VEGAS, NV  PTCLDY    69  35  28 CALM      29.83R
ELY, NY        CLOUDY    46  42  86 S7        30.02R
ELKO, NV       PTCLDY    45  43  93 S3        29.96R
POCATELLO, ID  CLOUDY    55  47  74 CALM      29.93R
BURLEY, ID     PTCLDY    51  45  79 W6        29.90R
FORT BRIDGER,    N/A     42  42  99 CALM      30.09R
EVANSTON, WY   CLEAR     40  39  97 E3        30.05R
ROCK SPRINGS,  FOG       39  38  96 N6        30.07R VSB 1/4 WCI  35
KEMMERER, WY   SUNNY     41  37  87 N6        30.07R

$$




USA.gov is the U.S. government's official web portal to all federal, state and local government web resources and services.